Miles City, MT

8:16 PM MST on December 03, 2016 (GMT -0700)
Wiley

Weather History for KMLS - September, 2013

Change the Weather History Date:

Friday, September 6, 2013

  Actual Average Record
Temperature  
Mean Temperature 81 °F 65 °F  
Max Temperature 96 °F 79 °F 97 °F (1980)
Min Temperature 66 °F 51 °F 35 °F (1943)
Degree Days  
Heating Degree Days 0 3  
Month to date heating degree days 0 17  
Since 1 July heating degree days 0 51  
Cooling Degree Days 16 3  
Month to date cooling degree days 85 24  
Year to date cooling degree days 820 696  
Growing Degree Days 30 (Base 50)    
Moisture  
Dew Point 60 °F    
Average Humidity 56    
Maximum Humidity 87    
Minimum Humidity 24    
Precipitation  
Precipitation T in 0.03 in 0.50 in (2001)
Month to date precipitation T 0.20  
Year to date precipitation 13.84 9.96  
Sea Level Pressure  
Sea Level Pressure 29.90 in    
Wind  
Wind Speed 7 mph (North)    
Max Wind Speed 24 mph    
Max Gust Speed 30 mph    
Visibility 10 miles    
Events Thunderstorm    
T = Trace of Precipitation, MM = Missing Value Source: NWS Daily Summary

Daily Weather History Graph

Daily Weather History Graph

Search for Another Location

Airport or City:

Trip Planner

Search our weather history database for the weather conditions in past years. The results will help you decide how hot, cold, wet, or windy it might be!

Date:

Astronomy

Sep. 06, 2013 Rise Set
Actual Time 6:30 AM MDT 7:32 PM MDT
Civil Twilight 5:59 AM MDT 8:02 PM MDT
Nautical Twilight 5:22 AM MDT 8:39 PM MDT
Astronomical Twilight 4:43 AM MDT 9:18 PM MDT
Moon 7:53 AM MDT (9/6) 7:48 PM MDT (9/6)
Length of Visible Light 14h 03m
Length of Day
13h 01m
New Moon, 2% of the Moon is Illuminated
Sep 6
New Moon
Sep 12
First Quarter
Sep 19
Full
Sep 26
Last Quarter
Oct 4
New

Hourly Weather History & Observations

Time (MDT) Temp. Heat Index Dew Point Humidity Pressure Visibility Wind Dir Wind Speed Gust Speed Precip Events Conditions
12:53 AM 81.0 °F 81.9 °F 62.1 °F 52% 29.82 in 10.0 mi SE 5.8 mph - N/A   Clear
1:53 AM 80.1 °F 81.2 °F 62.1 °F 54% 29.83 in 10.0 mi South 3.5 mph - N/A   Clear
2:18 AM 80.6 °F 81.8 °F 62.6 °F 54% 29.95 in 10.0 mi WSW 6.9 mph - N/A   Scattered Clouds
2:53 AM 80.1 °F 81.2 °F 62.1 °F 54% 29.87 in 10.0 mi West 5.8 mph - N/A   Mostly Cloudy
3:05 AM 80.6 °F 81.8 °F 62.6 °F 54% 29.95 in 10.0 mi WNW 11.5 mph - N/A Thunderstorm Thunderstorm
3:53 AM 75.0 °F - 64.0 °F 69% 29.86 in 10.0 mi NW 19.6 mph 26.5 mph 0.00 in   Partly Cloudy
4:00 AM 75.2 °F - 64.4 °F 69% 29.96 in 10.0 mi NNW 19.6 mph 25.3 mph N/A   Partly Cloudy
4:53 AM 72.0 °F - 61.0 °F 68% 29.87 in 10.0 mi North 16.1 mph 20.7 mph N/A   Clear
5:53 AM 69.1 °F - 62.1 °F 78% 29.90 in 10.0 mi NNE 6.9 mph - N/A   Clear
6:53 AM 66.9 °F - 62.1 °F 84% 29.92 in 7.0 mi SW 6.9 mph - N/A   Clear
7:53 AM 72.0 °F - 63.0 °F 73% 29.94 in 10.0 mi West 6.9 mph - N/A   Clear
8:53 AM 77.0 °F - 61.0 °F 58% 29.95 in 10.0 mi WSW 3.5 mph - N/A   Clear
9:53 AM 80.1 °F 81.1 °F 61.0 °F 52% 29.96 in 10.0 mi Variable 3.5 mph - N/A   Clear
10:53 AM 82.9 °F 83.7 °F 62.1 °F 49% 29.95 in 10.0 mi Variable 4.6 mph - N/A   Clear
11:53 AM 86.0 °F 86.1 °F 61.0 °F 43% 29.94 in 10.0 mi Calm Calm - N/A   Clear
12:53 PM 90.0 °F 89.1 °F 59.0 °F 35% 29.92 in 10.0 mi Variable 5.8 mph - N/A   Clear
1:53 PM 93.0 °F 91.7 °F 57.0 °F 30% 29.91 in 10.0 mi Calm Calm - N/A   Clear
2:53 PM 95.0 °F 92.7 °F 54.0 °F 25% 29.89 in 10.0 mi North 3.5 mph - N/A   Clear
3:53 PM 95.0 °F 93.0 °F 55.0 °F 26% 29.87 in 10.0 mi ESE 3.5 mph - N/A   Clear
4:53 PM 95.0 °F 93.4 °F 55.9 °F 27% 29.86 in 10.0 mi ENE 8.1 mph - N/A   Clear
5:53 PM 91.9 °F 89.5 °F 54.0 °F 27% 29.86 in 10.0 mi ENE 8.1 mph - N/A   Clear
6:53 PM 88.0 °F 86.5 °F 55.9 °F 34% 29.88 in 10.0 mi North 5.8 mph - N/A   Clear
7:53 PM 86.0 °F 84.9 °F 57.0 °F 37% 29.91 in 10.0 mi NNW 5.8 mph - N/A   Scattered Clouds
8:53 PM 82.9 °F 82.4 °F 57.0 °F 41% 29.91 in 10.0 mi NNW 12.7 mph - 0.00 in   Mostly Cloudy
9:53 PM 82.9 °F 82.8 °F 59.0 °F 44% 29.89 in 10.0 mi ENE 6.9 mph - 0.00 in   Scattered Clouds
10:53 PM 81.0 °F 81.6 °F 60.1 °F 49% 29.89 in 10.0 mi NNE 6.9 mph - 0.00 in   Partly Cloudy
11:53 PM 80.1 °F 80.7 °F 59.0 °F 48% 29.89 in 10.0 mi ENE 8.1 mph - N/A   Scattered Clouds